Ephrata, WA
on Thursday, January 24, 2013

Thursday
Previous Day Next Day
Daily Summary
 ActualAverageRecord
Temperature
Mean Temperature °F 30°F  
Max Temperature 29°F 37°F 54°F (1968)
Min Temperature 14°F 24°F -6°F (1950)
Degree Days
Heating Degree Days 43 35  
Month to date heating degree days 948 882  
Since 1 July heating degree days 3203 3468  
Cooling Degree Days 0 0  
Month to date cooling degree days 0 0  
Year to date cooling degree days 0 0  
Moisture
Dew Point 23°F   
Average Humidity 87    
Maximum Humidity 96    
Minimum Humidity 78    
Precipitation
Precipitation 0.00 in 0.03 in 0.49 in (1959)
Month to date precipitation 0.18 0.74  
Year to date precipitation 0.18 0.74  
Wind
Wind Speed 8 mph   
Max Wind Speed 12 mph   
Max Gust Speed 14 mph   
Visibility 6 miles   
Events     

Key: T is trace of precipitation, MM is missing value
Source: NWS Daily Summary
Time(PST)TemperatureDew PointHumidity Pressure Visibility Wind DirectionWind SpeedGust SpeedPrecipitationEvents Conditions
12:53 AM 15.1°F 12.9°F 91% 30.15 in 5.0 miles North 4.6 mph - N/A   Clear
1:02 AM 15.8°F 12.2°F 86% 30.10 in 5.0 miles North 6.9 mph - N/A   Scattered Clouds
1:11 AM 17.6°F 15.8°F 93% 30.10 in 5.0 miles North 5.8 mph - N/A   Mostly Cloudy
1:53 AM 21.0°F 18.0°F 88% 30.17 in 6.0 miles North 6.9 mph - N/A   Overcast
2:53 AM 23.0°F 21.0°F 92% 30.20 in 5.0 miles North 9.2 mph - N/A   Overcast
4:53 AM 24.1°F 21.9°F 91% 30.24 in 5.0 miles North 6.9 mph - N/A   Overcast
5:53 AM 25.0°F 21.9°F 88% 30.25 in 5.0 miles North 6.9 mph - N/A   Overcast
6:53 AM 25.0°F 21.9°F 88% 30.27 in 6.0 miles North 8.1 mph - N/A   Overcast
7:53 AM 25.0°F 23.0°F 92% 30.29 in 5.0 miles NNE 8.1 mph - N/A   Overcast
8:53 AM 26.1°F 23.0°F 88% 30.31 in 5.0 miles North 8.1 mph - N/A   Overcast
9:53 AM 26.1°F 23.0°F 88% 30.32 in 5.0 miles North 8.1 mph - N/A   Overcast
10:53 AM 26.1°F 23.0°F 88% 30.32 in 6.0 miles NE 5.8 mph - N/A   Overcast
11:53 AM 27.0°F 23.0°F 85% 30.30 in 7.0 miles NNE 8.1 mph - N/A   Overcast
12:53 PM 28.0°F 23.0°F 81% 30.29 in 7.0 miles NNE 9.2 mph - N/A   Overcast
1:53 PM 28.0°F 23.0°F 81% 30.28 in 9.0 miles North 8.1 mph - N/A   Overcast
2:53 PM 28.0°F 24.1°F 85% 30.26 in 8.0 miles North 11.5 mph - N/A   Overcast
3:53 PM 28.0°F 24.1°F 85% 30.26 in 8.0 miles North 8.1 mph - N/A   Overcast
4:53 PM 28.9°F 25.0°F 85% 30.24 in 8.0 miles NNW 4.6 mph - N/A   Overcast
5:29 PM 28.4°F 24.8°F 86% 30.19 in 8.0 miles NW 6.9 mph - N/A   Overcast
5:53 PM 28.9°F 26.1°F 89% 30.24 in 8.0 miles NNW 4.6 mph - N/A   Overcast
6:53 PM 28.9°F 25.0°F 85% 30.24 in 8.0 miles NW 6.9 mph - N/A   Overcast
7:53 PM 28.9°F 25.0°F 85% 30.21 in 7.0 miles NNW 5.8 mph - N/A   Overcast
8:53 PM 28.9°F 25.0°F 85% 30.20 in 7.0 miles NW 9.2 mph - N/A   Overcast
9:53 PM 28.9°F 25.0°F 85% 30.20 in 7.0 miles NW 8.1 mph - N/A   Overcast
10:53 PM 28.9°F 26.1°F 89% 30.19 in 6.0 miles WNW 6.9 mph - N/A   Overcast
11:45 PM 28.4°F 26.6°F 93% 30.14 in 6.0 miles WNW 5.8 mph - N/A   Overcast
11:53 PM 28.9°F 26.1°F 89% 30.19 in 7.0 miles WNW 6.9 mph - N/A   Overcast
Moon Phase
Jan. 24 Jan. 26 Feb. 03 Feb. 10 Feb. 17
Sunrise:07:32 AM (PST) Moon Rise:02:52 PM (PST)1/24
Sunset:04:48 PM (PST) Moon Set:05:36 AM (PST)1/24

Copyright © 2014 The Weather Underground, Inc.